OBJECT R, 61750

Orbit data source: Space-Track

You're viewing an Uncataloged Satellite

Recently launched and/or uncataloged satellites may have evolving metadata. Metadata may include but not limited to: Owner, Maufacturer, Bus, Motor, and Mission.

OBJECT R, 61750 is a satellite in SSO that was launched on Mon, 04 Nov 2024 UTC via a SOYUZ-2-1B launch vehicle from the Vostochny Cosmodrome (VOSTO). Unknown objects in Earth's orbit typically refer to objects detected orbiting the Earth but have not yet been identified or cataloged. These objects could be anything from previously untracked satellites, spent rocket stages, debris from satellite collisions, or even natural meteoroids temporarily captured by Earth's gravity.

Loading next visibility...
Identifier
61750, 2024-199R
Orbit
SSO
Country
Flag of TBDTBD
Related business
None
Manufacturer
Unknown
Mission
Operational Commercial Technology
Bus & Motor
Unknown
Mass
Unknown
Launch date (UTC)
2024-11-04 (1 year ago)
Launch vehicle
SOYUZ-2-1B
Launch site
Vostochny Cosmodrome (VOSTO)
Object type
Unknown
Shape & HBR
Box, 0.1 m
Radar Cross Section
0.045 m², Medium (>0.1 m² and < 1m²)

Expand to show TLE details & history
Last TLE update: 9 hours ago

TLE from 9 hours ago
0 OBJECT R
1 61750U 24199R   26037.79190704  .00043123  00000-0  87639-3 0  9998
2 61750  97.3160 271.5928 0010337  46.5425 313.6682 15.46138289117343
Epoch: 2026-02-06T19:00Z
TLE epoch observation values (Epoch: 2026-02-06T19:00:20.768Z)
Latitude
-0.00007°
Longitude
-150.41843°
Altitude
426.309 km
Speed
7.658 km/s
True Right ascension
18h 06m 22s
True Declination
0° 00' 00"
Sunlit
Object was in daylight at epoch
Visualization orbit readout
Latitude
Unknown
Longitude
Unknown
Altitude
Unknown
Speed
Unknown
Apparent Right ascension
Unknown
Apparent Declination
Unknown
Sunlit
N/A
Visualization observer readout
Local Sidereal Time
06:17:10
Azimuth
Unknown
Elevation
Unknown
Doppler factor
Unknown
Orbital elements
Apogee altitude
431.995 km
Perigee altitude
417.93 km
Semi-major axis
6,803.1 km
Eccentricity
0.00103
Inclination
97.316°
RAAN
271.5928°
Arg. of periapsis
46.5425°
True anomaly
313.58244°
Mean anomaly
313.6682°
Eccentric anomaly
313.62533°
Mean motion
3.86797 °/min
Orbital period
93.07 mins
BSTAR
0.00087639
Loading maneuver chart data...
Computing Atmospheric mass density...
Loading historical data...
Loading historical data...
Loading historical data...
Loading historical data...
Loading historical data...
Loading historical data...
Loading historical data...

Documentation

Showing up to 5 results
|